Regional Weather Roundup
Issued by NWS

Home | Current Version | Previous Version | Graphics & Text | Print | Product List | Glossary On
Versions: 1 2 3 4 5 6 7 8 9 10 11 12 13 14 15 16 17 18 19 20 21 22 23 24 25 26 27 28 29 30 31 32 33 34 35 36 37 38 39 40 41 42 43 44 45 46 47 48 49 50
000
ASUS45 KBOU 012307
RWRCO

WEATHER ROUNDUP FOR COLORADO
NATIONAL WEATHER SERVICE DENVER/BOULDER CO
500 PM MDT FRI AUG 01 2014

NOTE: "FAIR" INDICATES FEW OR NO CLOUDS BELOW 12000 FEET WITH NO
SIGNIFICANT WEATHER AND/OR OBSTRUCTIONS TO VISIBILITY.

COZ001>005-013-030-031-020000-
...NORTHWEST COLORADO...

CITY           SKY/WX    TMP DP  RH WIND       PRES   REMARKS
CRAIG          MOSUNNY   75  36  24 VRB3      30.20F
HAYDEN         MOSUNNY   81  43  26 NE16      30.23F
MEEKER         PTSUNNY   77  45  32 W12       30.25S
MOUNT WERNER   NOT AVBL
STEAMBOAT SPGS PTSUNNY   71  45  39 CALM      30.28S
WALDEN         SUNNY     70  39  32 SE10G18   30.36F
$$

COZ006>008-011-020000-
...WEST CENTRAL VALLEYS...

CITY           SKY/WX    TMP DP  RH WIND       PRES   REMARKS
GRAND JUNCTION PTSUNNY   81  44  27 NE16      30.14S
MONTROSE       PTSUNNY   81  47  30 NW13      30.22F
EAGLE          PTSUNNY   72  54  53 W8        30.30S
RIFLE          CLOUDY    76  47  35 MISG      30.22R
DELTA          PTSUNNY   80  49  33 NE16      30.19S
NUCLA          PTSUNNY   84  45  24 N10       30.22F
$$

COZ017>023-064>068-020000-
...SOUTHWEST COLORADO...

CITY           SKY/WX    TMP DP  RH WIND       PRES   REMARKS
DURANGO        PTSUNNY   74  48  39 N17       30.25S
CORTEZ         MOSUNNY   81  49  32 E22G28    30.18S
PAGOSA SPRINGS PTSUNNY   66  54  64 SE7       30.34F
TELLURIDE      CLOUDY    64  46  52 N6        30.42S
WOLF CREEK PAS NOT AVBL
$$

COZ009-010-012-014-032>034-037-058>063-020000-
...CENTRAL COLORADO...

CITY           SKY/WX    TMP DP  RH WIND       PRES   REMARKS
ASPEN          MOSUNNY   69  41  36 NW5       30.36F
BUENA VISTA    CLOUDY    55  49  80 CALM      30.46F
COPPER MTN     PTSUNNY   54  41  62 S14       30.65F
BERTHOUD PASS  PTSUNNY   37  37 100 MISG      30.71S
COTTONWOOD PAS RAIN      52  48  87 CALM      30.56F
GUNNISON       PTSUNNY   66  48  52 N15G21    30.36F
KREMMLING      MOSUNNY   77  34  20 W5        30.33S
LEADVILLE      PTSUNNY   51  46  83 S14       30.52F
MONARCH PASS   CLOUDY    41  39  93 E30       30.72F FOG
SALIDA         NOT AVBL
SUNLIGHT       PTSUNNY   54  50  87 NE8       30.59S
WILKERSON PASS DRIZZLE   43  41  93 E3        30.67S
$$

COZ069>075-020000-
...SAN LUIS VALLEY/SANGRE DE CRISTO MOUNTAINS...

CITY           SKY/WX    TMP DP  RH WIND       PRES   REMARKS
ALAMOSA        CLOUDY    66  47  50 CALM      30.32F
LA VETA PASS   RAIN      48  46  93 E17G23    30.53F VSB<1/4
SAGUACHE       CLOUDY    61  52  72 N23       30.38R
$$

COZ035-036-038>040-020000-
...NORTHERN COLORADO FRONT RANGE...

CITY           SKY/WX    TMP DP  RH WIND       PRES   REMARKS
DENVER INTL AP PTSUNNY   80  42  25 SE9       30.25F
DMNS CITY PARK   N/A     79  42  27 S6        30.24F
AURORA         PTSUNNY   77  46  32 S10       30.27F
FRONT RANGE AP PTSUNNY   81  45  28 S9G16     30.27
ERIE MUNI ARPT PTSUNNY   80  37  21 SE8       30.23S
BOULDER MUN AP PTSUNNY   81  43  26 E5        30.24S
CENTENNIAL     PTSUNNY   76  37  24 VRB5      30.28F
BROOMFIELD     MOSUNNY   81  39  22 SE10      30.27F
FORT COLLINS   PTSUNNY   82  43  24 S12       30.21F
LONGMONT       PTSUNNY   82  42  24 CALM      30.24F
$$

COZ041-046-047-076>085-087-088-020000-
...PIKES PEAK/PALMER DIVIDE AND SOUTHERN FOOTHILLS...

CITY           SKY/WX    TMP DP  RH WIND       PRES   REMARKS
COLO. SPRINGS  CLOUDY    69  52  54 SW6       30.33S
A. F. ACADEMY  CLOUDY    68  50  52 W6        30.34S
ELLICOTT       CLOUDY    72  42  34 VRB3      30.31F
FALCON         CLOUDY    68  46  46 S7        30.38S
FORT CARSON    CLOUDY    70  54  56 SW8       30.30F
LIMON          PTSUNNY   79  41  25 SW8G22    30.26F
MONUMENT HILL  PTSUNNY   64  46  52 S7        30.37S
TRINIDAD       CLOUDY    66  56  70 W5        30.29R
$$

COZ042>045-048>051-090-091-020000-
...NORTHEAST COLORADO...

CITY           SKY/WX    TMP DP  RH WIND       PRES   REMARKS
GREELEY ARPT   PTSUNNY   81  48  32 E7        30.21F
AKRON          CLOUDY    81  44  27 S12       30.21S
BURLINGTON     PTSUNNY   85  42  22 E5        30.18F
WRAY             N/A     86  47  26 E9        30.15S
STERLING       CLOUDY    88  52  29 SW5       30.16F
HOLYOKE        SUNNY     88  43  20 SE7       30.16S
FORT MORGAN    CLOUDY    84  43  23 E6        30.20
$$

COZ086-089-092>099-020000-
...SOUTHEAST COLORADO...

CITY           SKY/WX    TMP DP  RH WIND       PRES   REMARKS
PUEBLO         LGT RAIN  65  62  90 W9        30.24F
LA JUNTA       PTSUNNY   81  51  35 E12       30.19S
LAMAR          PTSUNNY   83  52  34 E5        30.15S
SPRINGFIELD      N/A     78  48  34 S9        30.20R
$$


USA.gov is the U.S. government's official web portal to all federal, state and local government web resources and services.